STARLINK-30349, 57713

Orbit data source: Space-Track

STARLINK-30349, 57713 is a payload satellite owned by SpaceX/Seattle (US) in LEO that was launched on Sun, 27 Aug 2023 UTC via an FALCON 9 launch vehicle from the Air Force Eastern Test Range (AFETR). Payload-class satellites include a variety of spacecraft equipped with specific instruments for various scientific and technological missions. These include communications satellites like Starlink; space stations such as the ISS; scientific satellites like the Hubble; Earth observation satellites from companies like Planet Labs, Umbra, and HawkEye 360; GPS; miniature CubeSats for education and research; and military/defense satellites.

Loading next visibility...
Identifier
57713, 2023-129R
Orbit
LEO
Country
Flag of USUS
Related business
Manufacturer
SpaceX/Seattle
Mission
Operational Commercial Communications
Bus & Motor
STARLINK V2M, Unknown motor
Mass
730 kg wet, ~700 kg dry
Launch date (UTC)
2023-08-27 (3 years ago)
Launch vehicle
FALCON 9
Launch site
Air Force Eastern Test Range (AFETR)
Object type
Payload
Rocket body
Debris
Shape & HBR
Box + 2 Pan, 17.7 m
Radar Cross Section
33.884 m², Large (>1 m²)

Expand to show TLE details & history
Last TLE update: 3 days ago

TLE from 3 days ago
0 STARLINK-30349
1 57713U 23129R   26170.71441915  .00001157  00000-0  51584-4 0  9999
2 57713  43.0073 261.9121 0002742 258.4805 101.5739 15.27579131156145
Epoch: 2026-06-19T17:08Z
TLE epoch observation values (Epoch: 2026-06-19T17:08:45.814Z)
Latitude
-0.00002°
Longitude
96.78176°
Altitude
483.206 km
Speed
7.625 km/s
True Right ascension
17h 27m 38s
True Declination
0° 00' 00"
Sunlit
Object was in full shadow at epoch
Visualization orbit readout
Latitude
Unknown
Longitude
Unknown
Altitude
Unknown
Speed
Unknown
Apparent Right ascension
Unknown
Apparent Declination
Unknown
Sunlit
N/A
Visualization observer readout
Local Sidereal Time
21:23:50
Azimuth
Unknown
Elevation
Unknown
Doppler factor
Unknown
Orbital elements
Apogee altitude
486.878 km
Perigee altitude
483.114 km
Semi-major axis
6,863.133 km
Eccentricity
0.00027
Inclination
43.0073°
RAAN
261.9121°
Arg. of periapsis
258.4805°
True anomaly
101.60468°
Mean anomaly
101.5739°
Eccentric anomaly
101.58929°
Mean motion
3.81733 °/min
Orbital period
94.31 mins
BSTAR
0.000051584
Loading maneuver chart data...
Computing Atmospheric mass density...
Loading historical data...
Loading historical data...
Loading historical data...
Loading historical data...
Loading historical data...
Loading historical data...
Loading historical data...

Documentation

Showing up to 5 results
|